Total_Precipitation_Accumulation
1.86 1.90 1.86 1.79 1.64 1.55 1.45 1.40 1.32 1.23 1.21 1.20 1.21 1.23 1.22 1.21 1.20 1.20 1.16 1.16 1.21 1.33 1.41 1.45 1.50 1.56 1.64 1.67 1.69 1.75 1.88 2.00 2.09 1.99 1.80 1.76 1.75 1.69 1.60 1.40 1.30 1.28 1.31
1.42 1.43 1.42 1.36 1.27 1.23 1.17 1.13 1.15 1.12 1.09 1.12 1.12 1.12 1.16 1.22 1.24 1.17 1.08 1.06 1.12 1.22 1.29 1.35 1.35 1.34 1.40 1.51 1.58 1.57 1.62 1.73 1.86 1.91 1.79 1.65 1.62 1.61 1.55 1.47 1.25 1.12 1.11
1.18 1.19 1.17 1.21 1.18 1.15 1.17 1.17 1.15 1.11 1.09 1.05 1.01 1.04 1.12 1.16 1.16 1.11 1.05 1.02 1.03 1.09 1.13 1.14 1.15 1.17 1.17 1.22 1.29 1.36 1.37 1.39 1.54 1.59 1.57 1.52 1.47 1.41 1.45 1.44 1.31 1.33 1.12
1.12 1.10 1.02 0.99 1.03 1.06 1.08 1.10 1.06 1.02 1.03 1.05 1.04 0.99 0.99 0.95 0.89 0.84 0.84 0.88 0.87 0.87 0.89 0.89 0.95 1.04 1.06 1.08 1.07 1.11 1.14 1.25 1.35 1.41 1.39 1.39 1.40 1.32 1.33 1.39 1.34 1.28 1.16
1.24 1.20 1.11 1.01 1.01 1.04 1.04 1.01 0.96 0.92 0.87 0.87 0.89 0.84 0.77 0.67 0.59 0.58 0.62 0.65 0.69 0.69 0.72 0.70 0.71 0.83 0.91 0.88 0.81 0.91 1.03 1.16 1.24 1.27 1.23 1.18 1.16 1.24 1.23 1.19 1.18 1.20 1.14
1.36 1.42 1.44 1.33 1.27 1.24 1.14 1.01 0.99 0.98 0.91 0.81 0.76 0.74 0.67 0.53 0.52 0.48 0.54 0.63 0.70 0.69 0.71 0.72 0.66 0.69 0.71 0.67 0.66 0.78 0.95 0.99 1.05 1.15 1.15 1.16 1.16 1.16 1.17 1.15 1.21 1.27 1.29
1.42 1.46 1.44 1.42 1.40 1.36 1.19 1.06 1.04 1.01 0.99 0.96 0.85 0.77 0.74 0.66 0.53 0.45 0.49 0.61 0.70 0.71 0.70 0.69 0.60 0.56 0.62 0.63 0.64 0.68 0.75 0.76 0.85 1.01 1.12 1.10 1.14 1.20 1.26 1.22 1.30 1.35 1.32
1.44 1.45 1.41 1.31 1.31 1.24 1.14 1.11 1.05 0.98 0.96 0.94 0.87 0.79 0.70 0.54 0.40 0.35 0.36 0.50 0.65 0.69 0.68 0.67 0.68 0.65 0.60 0.61 0.60 0.64 0.73 0.79 0.80 0.84 1.03 1.04 1.01 1.10 1.20 1.27 1.36 1.37 1.33
1.44 1.36 1.28 1.20 1.18 1.11 1.07 1.01 0.93 0.86 0.84 0.80 0.73 0.68 0.67 0.53 0.33 0.28 0.31 0.49 0.66 0.65 0.61 0.55 0.57 0.61 0.61 0.59 0.63 0.76 0.82 0.87 0.73 0.73 0.83 0.90 0.93 0.98 1.01 1.11 1.32 1.49 1.44
1.20 1.02 0.96 0.99 0.99 0.95 0.89 0.83 0.79 0.77 0.76 0.67 0.60 0.63 0.63 0.59 0.43 0.36 0.38 0.49 0.61 0.59 0.60 0.57 0.52 0.52 0.53 0.55 0.64 0.78 0.85 0.85 0.77 0.78 0.94 1.03 1.01 1.09 1.06 1.12 1.35 1.45 1.40
1.03 0.89 0.85 0.85 0.81 0.78 0.77 0.77 0.73 0.68 0.70 0.68 0.67 0.63 0.57 0.49 0.38 0.33 0.34 0.39 0.51 0.56 0.57 0.61 0.55 0.45 0.42 0.46 0.58 0.66 0.71 0.69 0.79 0.96 1.06 1.08 1.10 1.16 1.12 1.09 1.25 1.35 1.42
0.97 0.90 0.85 0.76 0.66 0.66 0.78 0.77 0.73 0.73 0.75 0.73 0.70 0.63 0.50 0.41 0.32 0.26 0.26 0.31 0.38 0.52 0.61 0.62 0.55 0.46 0.42 0.44 0.52 0.58 0.59 0.69 0.87 1.06 1.15 1.13 1.05 1.03 1.04 1.02 1.15 1.23 1.26
0.95 0.93 0.81 0.69 0.71 0.70 0.76 0.75 0.69 0.67 0.62 0.57 0.55 0.55 0.48 0.40 0.33 0.27 0.29 0.33 0.39 0.46 0.53 0.49 0.45 0.45 0.46 0.56 0.58 0.59 0.69 0.90 1.02 1.09 1.16 1.16 1.05 0.98 0.96 0.92 1.02 1.16 1.15
1.04 0.98 0.84 0.73 0.67 0.63 0.62 0.57 0.54 0.54 0.52 0.50 0.47 0.44 0.42 0.41 0.38 0.36 0.37 0.37 0.39 0.44 0.48 0.50 0.54 0.57 0.60 0.69 0.78 0.87 0.91 0.97 0.97 1.04 1.08 1.04 0.93 0.89 0.93 0.93 1.02 1.13 1.17
1.01 0.90 0.78 0.65 0.57 0.53 0.44 0.38 0.35 0.34 0.33 0.36 0.35 0.32 0.36 0.37 0.33 0.33 0.33 0.33 0.35 0.35 0.38 0.56 0.77 0.81 0.87 0.94 0.97 1.02 1.08 1.01 0.95 0.95 0.98 0.99 0.95 0.92 0.91 0.88 0.97 1.06 1.16
0.92 0.74 0.61 0.53 0.46 0.39 0.35 0.34 0.27 0.21 0.19 0.18 0.18 0.19 0.20 0.22 0.20 0.22 0.25 0.27 0.30 0.33 0.39 0.65 0.77 0.82 0.89 0.91 0.92 0.96 1.02 1.06 0.99 0.93 0.93 0.94 0.93 0.91 0.92 0.88 0.90 1.03 1.13
0.76 0.59 0.46 0.40 0.40 0.36 0.34 0.40 0.40 0.26 0.17 0.15 0.16 0.17 0.18 0.17 0.16 0.19 0.23 0.27 0.33 0.43 0.57 0.74 0.76 0.80 0.85 0.81 0.80 0.85 0.90 0.91 0.84 0.81 0.81 0.81 0.81 0.82 0.88 0.89 0.84 0.84 0.87
0.46 0.36 0.31 0.34 0.32 0.28 0.26 0.28 0.32 0.36 0.36 0.29 0.23 0.20 0.18 0.19 0.20 0.23 0.28 0.34 0.47 0.57 0.65 0.70 0.71 0.72 0.76 0.75 0.74 0.75 0.73 0.69 0.65 0.67 0.74 0.76 0.76 0.76 0.77 0.78 0.72 0.69 0.75
0.30 0.28 0.26 0.25 0.23 0.20 0.18 0.20 0.22 0.28 0.37 0.39 0.32 0.24 0.22 0.28 0.31 0.34 0.39 0.46 0.57 0.61 0.60 0.62 0.64 0.65 0.66 0.70 0.70 0.64 0.60 0.57 0.55 0.56 0.60 0.66 0.69 0.67 0.68 0.65 0.59 0.53 0.61
0.24 0.21 0.22 0.21 0.20 0.18 0.17 0.18 0.21 0.24 0.29 0.35 0.35 0.28 0.29 0.39 0.49 0.51 0.49 0.49 0.49 0.50 0.51 0.53 0.51 0.50 0.52 0.55 0.53 0.50 0.48 0.50 0.48 0.49 0.51 0.52 0.52 0.55 0.57 0.54 0.50 0.50 0.55
0.18 0.16 0.17 0.18 0.19 0.17 0.17 0.18 0.20 0.22 0.27 0.32 0.30 0.27 0.32 0.39 0.48 0.49 0.48 0.45 0.44 0.46 0.48 0.47 0.43 0.40 0.40 0.42 0.43 0.44 0.43 0.45 0.45 0.48 0.47 0.44 0.43 0.43 0.42 0.42 0.43 0.42 0.43
0.19 0.17 0.16 0.18 0.17 0.17 0.19 0.21 0.23 0.23 0.24 0.28 0.30 0.26 0.30 0.36 0.43 0.47 0.49 0.45 0.42 0.41 0.42 0.42 0.38 0.37 0.36 0.37 0.38 0.36 0.35 0.38 0.42 0.46 0.44 0.40 0.38 0.37 0.36 0.36 0.38 0.40 0.38
0.19 0.16 0.15 0.15 0.13 0.15 0.16 0.18 0.18 0.19 0.20 0.25 0.29 0.29 0.30 0.36 0.41 0.46 0.46 0.39 0.32 0.31 0.33 0.37 0.38 0.35 0.32 0.30 0.29 0.29 0.27 0.28 0.31 0.36 0.38 0.35 0.35 0.33 0.32 0.32 0.32 0.36 0.37
0.15 0.14 0.14 0.12 0.12 0.13 0.15 0.15 0.16 0.17 0.18 0.22 0.29 0.27 0.26 0.31 0.34 0.35 0.35 0.30 0.25 0.24 0.26 0.29 0.32 0.31 0.27 0.26 0.24 0.23 0.23 0.22 0.21 0.23 0.26 0.30 0.33 0.29 0.28 0.27 0.28 0.30 0.34
0.11 0.12 0.12 0.11 0.11 0.12 0.11 0.11 0.13 0.14 0.16 0.22 0.28 0.25 0.21 0.21 0.23 0.24 0.24 0.26 0.24 0.23 0.23 0.22 0.23 0.24 0.23 0.22 0.21 0.18 0.19 0.20 0.19 0.19 0.20 0.23 0.26 0.26 0.27 0.30 0.30 0.31 0.33
0.09 0.09 0.09 0.08 0.09 0.09 0.08 0.10 0.12 0.15 0.17 0.19 0.21 0.20 0.18 0.18 0.20 0.20 0.19 0.20 0.20 0.20 0.19 0.19 0.18 0.18 0.21 0.24 0.23 0.22 0.20 0.19 0.18 0.19 0.20 0.22 0.26 0.27 0.28 0.31 0.31 0.34 0.37